Date String (YYYY-MM-DD hh:mm:ss) UTC,Instrument flags,absolute air pressure of the measurement (hPa),sample flow rate (lpm),inlet stack bypass flow (lpm),air temperature of the measurement (°C),ambient temperature measured by the external sensor (°C),aerosol sample conditioner tube jacket temperature (°C),OPC LED temperature (°C),internal box temperature (°C),relative humidity of the measurement (%),span deviation,mass concentration of particles derived from Lorenz-Mie calculation of OPC scattering (μg/m³),mass concentration of particles derived from Lorenz-Mie calculation of OPC scattering (μg/m³),mass concentration of particles derived from Lorenz-Mie calculation of OPC scattering (μg/m³)
DateTimeUTC,F1_M11,P_M11,Q1_M11,Q2_M11,T1_M11,T2_M11,T3_M11,T4_M11,T5_M11,U1_M11,ZSPAN_M11,X2_M11,X0_M11,X1_M11
2024-01-29 15:00:00,SystemResetWarning,0837.7,5.00,000.00,022.1,021.1,000.0,030.4,023.4,15.4,0000.0,0000.64,0000.94,0000.51
2024-01-29 15:01:00,SystemResetWarning,0837.7,5.00,000.00,022.1,021.1,000.0,030.4,023.5,15.4,0000.0,0000.65,0000.99,0000.50
2024-01-29 15:02:00,SystemResetWarning,0837.7,5.01,000.00,022.1,021.1,000.0,030.4,023.5,15.4,0000.0,0000.67,0001.05,0000.49
2024-01-29 15:03:00,SystemResetWarning,0837.7,5.00,000.00,022.1,021.0,000.0,030.4,023.4,15.4,0000.0,0000.66,0001.02,0000.49
2024-01-29 15:04:00,SystemResetWarning,0837.8,5.00,000.00,022.1,021.1,000.0,030.4,023.4,15.4,0000.0,0000.67,0001.19,0000.48
2024-01-29 15:05:00,SystemResetWarning,0837.8,5.00,000.00,022.1,021.1,000.0,030.4,023.4,15.4,0000.0,0000.66,0001.28,0000.48
2024-01-29 15:06:00,SystemResetWarning,0837.7,5.00,000.00,022.1,021.1,000.0,030.4,023.5,15.4,0000.0,0000.69,0001.56,0000.48
2024-01-29 15:07:00,SystemResetWarning,0837.8,5.00,000.00,022.1,021.1,000.0,030.4,023.5,15.3,0000.0,0000.72,0001.74,0000.48
2024-01-29 15:08:00,SystemResetWarning,0837.8,5.00,000.00,022.1,021.1,000.0,030.4,023.5,15.3,0000.0,0000.75,0001.80,0000.49
2024-01-29 15:09:00,SystemResetWarning,0837.8,5.00,000.00,022.1,021.1,000.0,030.4,023.5,15.4,0000.0,0000.75,0001.81,0000.48
2024-01-29 15:10:00,SystemResetWarning,0837.8,5.00,000.00,022.1,021.1,000.0,030.4,023.5,15.4,0000.0,0000.80,0001.96,0000.48
2024-01-29 15:11:00,SystemResetWarning,0837.8,5.00,000.00,022.1,021.1,000.0,030.4,023.5,15.4,0000.0,0000.82,0002.05,0000.47
2024-01-29 15:12:00,SystemResetWarning,0837.8,5.00,000.00,022.1,021.1,000.0,030.4,023.5,15.4,0000.0,0000.84,0002.11,0000.47
2024-01-29 15:13:00,SystemResetWarning,0837.8,5.00,000.00,022.1,021.1,000.0,030.4,023.5,15.4,0000.0,0000.86,0002.12,0000.47
2024-01-29 15:14:00,SystemResetWarning,0837.8,5.00,000.00,022.1,021.1,000.0,030.4,023.5,15.4,0000.0,0000.90,0002.25,0000.46
2024-01-29 15:15:00,SystemResetWarning,0837.8,5.00,000.00,022.1,021.1,000.0,030.4,023.5,15.4,0000.0,0000.91,0002.23,0000.46
2024-01-29 15:16:00,SystemResetWarning,0837.8,5.00,000.00,022.1,021.2,000.0,030.4,023.5,15.4,0000.0,0000.94,0002.15,0000.46
2024-01-29 15:17:00,SystemResetWarning,0837.9,5.01,000.00,022.1,021.2,000.0,030.4,023.5,15.3,0000.0,0000.97,0002.25,0000.46
2024-01-29 15:18:00,SystemResetWarning,0837.9,5.00,000.00,022.1,021.2,000.0,030.4,023.5,15.3,0000.0,0000.96,0002.01,0000.47
2024-01-29 15:19:00,SystemResetWarning,0837.9,4.99,000.00,022.1,021.2,000.0,030.4,023.6,15.3,0000.0,0000.92,0001.91,0000.46
2024-01-29 15:20:00,SystemResetWarning,0837.9,4.99,000.00,022.1,021.2,000.0,030.4,023.6,15.3,0000.0,0000.91,0001.89,0000.46
2024-01-29 15:21:00,SystemResetWarning,0837.8,5.00,000.00,022.1,021.2,000.0,030.4,023.6,15.3,0000.0,0000.88,0002.87,0000.47
2024-01-29 15:22:00,SystemResetWarning,0837.8,5.00,000.00,022.1,021.2,000.0,030.4,023.6,15.3,0000.0,0000.89,0003.10,0000.47
2024-01-29 15:23:00,SystemResetWarning,0837.8,5.01,000.00,022.1,021.2,000.0,030.4,023.6,15.3,0000.0,0000.89,0003.06,0000.47
2024-01-29 15:24:00,SystemResetWarning,0837.8,5.00,000.00,022.1,021.2,000.0,030.4,023.6,15.6,0000.0,0000.87,0003.07,0000.48
2024-01-29 15:25:00,SystemResetWarning,0837.8,5.01,000.00,022.1,021.2,000.0,030.4,023.6,15.9,0000.0,0000.84,0003.02,0000.48
2024-01-29 15:26:00,SystemResetWarning,0837.8,5.00,000.00,022.1,021.2,000.0,030.4,023.6,15.4,0000.0,0000.85,0003.07,0000.49
2024-01-29 15:27:00,SystemResetWarning,0837.8,5.00,000.00,022.2,021.3,000.0,030.4,023.6,15.6,0000.0,0000.85,0003.33,0000.49
2024-01-29 15:28:00,SystemResetWarning,0837.8,5.00,000.00,022.2,021.3,000.0,030.4,023.6,15.7,0000.0,0000.80,0003.18,0000.49
2024-01-29 15:29:00,SystemResetWarning,0837.8,4.99,000.00,022.2,021.3,000.0,030.4,023.6,15.8,0000.0,0000.80,0003.22,0000.49
2024-01-29 15:30:00,SystemResetWarning,0837.8,4.99,000.00,022.2,021.3,000.0,030.4,023.7,15.7,0000.0,0000.79,0003.20,0000.48
2024-01-29 15:31:00,SystemResetWarning,0837.8,5.00,000.00,022.2,021.3,000.0,030.4,023.7,15.6,0000.0,0000.80,0003.22,0000.49
2024-01-29 15:32:00,SystemResetWarning,0837.8,5.00,000.00,022.2,021.3,000.0,030.4,023.7,16.1,0000.0,0000.77,0002.17,0000.49
2024-01-29 15:33:00,SystemResetWarning,0837.8,5.00,000.00,022.2,021.3,000.0,030.4,023.7,16.3,0000.0,0000.79,0001.86,0000.48
2024-01-29 15:34:00,SystemResetWarning,0837.8,5.01,000.00,022.2,021.4,000.0,030.5,023.7,16.6,0000.0,0000.77,0001.80,0000.48
2024-01-29 15:35:00,SystemResetWarning,0837.9,5.00,000.00,022.2,021.4,000.0,030.5,023.7,16.9,0000.0,0000.78,0002.19,0000.49
2024-01-29 15:36:00,SystemResetWarning,0837.9,4.99,000.00,022.2,021.4,000.0,030.5,023.7,16.5,0000.0,0000.78,0002.75,0000.49
2024-01-29 15:37:00,SystemResetWarning,0838.0,5.00,000.00,022.2,021.4,000.0,030.5,023.7,17.1,0000.0,0000.76,0002.94,0000.50
2024-01-29 15:38:00,SystemResetWarning,0837.9,5.00,000.00,022.2,021.4,000.0,030.5,023.7,17.1,0000.0,0000.73,0002.65,0000.50
2024-01-29 15:39:00,SystemResetWarning,0837.9,5.00,000.00,022.3,021.4,000.0,030.5,023.8,17.0,0000.0,0000.73,0002.56,0000.51
2024-01-29 15:40:00,SystemResetWarning,0837.9,5.00,000.00,022.3,021.4,000.0,030.5,023.8,17.2,0000.0,0000.71,0002.49,0000.50
2024-01-29 15:41:00,SystemResetWarning,0837.8,5.00,000.00,022.3,021.5,000.0,030.5,023.8,16.8,0000.0,0000.72,0002.52,0000.49
2024-01-29 15:42:00,SystemResetWarning,0837.9,5.00,000.00,022.3,021.5,000.0,030.5,023.8,17.2,0000.0,0000.69,0002.47,0000.48
2024-01-29 15:43:00,SystemResetWarning,0837.8,5.00,000.00,022.3,021.5,000.0,030.5,023.8,17.3,0000.0,0000.70,0002.50,0000.48
2024-01-29 15:44:00,SystemResetWarning,0837.8,5.00,000.00,022.3,021.5,000.0,030.5,023.8,17.0,0000.0,0000.68,0002.60,0000.48
2024-01-29 15:45:00,SystemResetWarning,0837.8,5.00,000.00,022.3,021.5,000.0,030.5,023.8,16.9,0000.0,0000.69,0002.64,0000.47
2024-01-29 15:46:00,SystemResetWarning,0837.9,5.00,000.00,022.3,021.5,000.0,030.6,023.9,17.2,0000.0,0000.67,0002.40,0000.44
2024-01-29 15:47:00,SystemResetWarning,0837.8,5.01,000.00,022.3,021.6,000.0,030.6,023.9,16.7,0000.0,0000.63,0001.59,0000.43
2024-01-29 15:48:00,SystemResetWarning,0837.8,5.00,000.00,022.4,021.6,000.0,030.6,023.9,16.5,0000.0,0000.60,0001.24,0000.42
2024-01-29 15:49:00,SystemResetWarning,0837.8,5.00,000.00,022.4,021.6,000.0,030.6,023.9,17.1,0000.0,0000.59,0001.11,0000.40
2024-01-29 15:50:00,SystemResetWarning,0837.9,5.00,000.00,022.4,021.6,000.0,030.6,023.9,16.6,0000.0,0000.59,0001.16,0000.40
2024-01-29 15:51:00,SystemResetWarning,0837.8,5.00,000.00,022.4,021.6,000.0,030.6,023.9,17.1,0000.0,0000.58,0001.11,0000.40
2024-01-29 15:52:00,SystemResetWarning,0837.8,5.00,000.00,022.4,021.7,000.0,030.6,023.9,17.1,0000.0,0000.58,0001.09,0000.41
2024-01-29 15:53:00,SystemResetWarning,0837.8,5.00,000.00,022.4,021.7,000.0,030.6,024.0,17.2,0000.0,0000.59,0001.10,0000.42
2024-01-29 15:54:00,SystemResetWarning,0837.9,5.00,000.00,022.4,021.7,000.0,030.6,024.0,17.1,0000.0,0000.60,0001.13,0000.42
2024-01-29 15:55:00,SystemResetWarning,0837.8,5.00,000.00,022.5,021.7,000.0,030.6,024.0,16.9,0000.0,0000.58,0000.96,0000.42
2024-01-29 15:56:00,SystemResetWarning,0837.9,5.00,000.00,022.5,021.7,000.0,030.7,024.0,16.8,0000.0,0000.58,0001.01,0000.43
2024-01-29 15:57:00,SystemResetWarning,0837.9,5.00,000.00,022.5,021.8,000.0,030.7,024.0,16.7,0000.0,0000.59,0001.08,0000.43
2024-01-29 15:58:00,SystemResetWarning,0838.0,5.00,000.00,022.5,021.8,000.0,030.7,024.1,16.8,0000.0,0000.59,0001.09,0000.44
2024-01-29 15:59:00,SystemResetWarning,0838.0,5.00,000.00,022.5,021.8,000.0,030.7,024.1,16.7,0000.0,0000.60,0001.18,0000.44
